Waarnemingen

Advertentie
Mijn weer
Helgoland, Duitsland (10015): temperatuur & dauwpunt: 20.09.2018 09:00:00 - 26.09.2018 09:00:00 (CEST)Helgoland, Duitsland (10015): temperatuur 5cm: 20.09.2018 09:00:00 - 26.09.2018 09:00:00 (CEST)Helgoland, Duitsland (10015): windsnelheid & windstoten: 20.09.2018 09:00:00 - 26.09.2018 09:00:00 (CEST)Helgoland, Duitsland (10015): windrichting: 20.09.2018 09:00:00 - 26.09.2018 09:00:00 (CEST)Helgoland, Duitsland (10015): luchtdruk: 20.09.2018 09:00:00 - 26.09.2018 09:00:00 (CEST)Helgoland, Duitsland (10015): zicht: 20.09.2018 09:00:00 - 26.09.2018 09:00:00 (CEST)Helgoland, Duitsland (10015): Zonneschijnduur: 20.09.2018 09:00:00 - 26.09.2018 09:00:00 (CEST)Helgoland, Duitsland (10015): neerslag: 20.09.2018 09:00:00 - 26.09.2018 09:00:00 (CEST)
Datum & Tijd tt [°C] td [°C] tt 5cm [°C] ff [km/u] ff [kn] fx [km/u] fx [kn] dd ppp [hPa] vv [km] sd [min] rr [mm]
26.09.2018 09:00:00 13,6 9,4 13,3 58 31 70 38 ZW 1027,9 13 1 0,0
26.09.2018 08:00:00 13,6 9,2 13,0 54 29 67 36 ZW 1028,7 17 0 0,0
26.09.2018 07:00:00 13,9 9,2 13,0 54 29 68 37 ZW 1028,8 19 0 0,0
26.09.2018 06:00:00 14,1 8,3 13,2 51 27 67 36 ZW 1029,8 22 0 0,0
26.09.2018 05:00:00 14,1 7,7 13,1 46 25 63 34 ZW 1030,7 23 0 0,0
26.09.2018 04:00:00 13,9 8,3 12,8 49 26 61 33 ZW 1031,5 25 0 0,0
26.09.2018 03:00:00 13,8 8,2 12,5 44 24 54 29 ZW 1032,4 29 0 0,0
26.09.2018 02:00:00 13,8 8,2 12,5 41 22 53 28 ZW 1033,1 34 0 0,0
26.09.2018 01:00:00 13,9 8,6 12,7 41 22 50 27 ZW 1033,5 32 0 0,0
26.09.2018 00:00:00 14,1 8,3 12,7 38 21 51 27 ZW 1034,5 39 0 0,0
25.09.2018 23:00:00 14,2 8,7 12,9 36 19 48 26 ZW 1034,6 37 0 0,0
25.09.2018 22:00:00 14,2 7,3 12,6 29 16 41 22 WZW 1035,3 42 0 0,0
25.09.2018 21:00:00 14,0 7,5 12,5 28 15 39 21 ZW 1035,5 51 0 0,0
25.09.2018 20:00:00 14,2 8,1 13,4 23 12 33 18 WZW 1036,0 48 0 0,0
25.09.2018 19:00:00 14,2 7,8 13,5 22 12 32 17 WZW 1035,7 56 0 0,0
25.09.2018 18:00:00 14,2 6,9 13,6 23 13 34 18 W 1036,8 47 37 0,0
25.09.2018 17:00:00 14,1 6,2 14,0 21 11 31 17 W 1036,9 56 38 0,0
25.09.2018 16:00:00 14,6 6,3 16,9 18 10 25 14 W 1036,9 46 60 0,0
25.09.2018 15:00:00 14,6 6,2 17,5 8 5 13 7 WZW 1037,3 - 60 0,0
25.09.2018 14:00:00 14,3 6,6 18,9 6 3 18 10 NNW 1037,7 - 59 0,0
25.09.2018 13:00:00 14,2 6,0 18,4 14 8 24 13 WZW 1037,9 - 45 0,0
25.09.2018 12:00:00 13,9 5,1 17,0 14 7 18 10 WNW 1038,0 - 58 0,0
25.09.2018 11:00:00 13,4 4,7 14,5 13 7 24 13 NW 1037,5 - 23 0,0
25.09.2018 10:00:00 12,9 5,1 11,9 14 7 25 13 NW 1036,8 - 45 0,0
25.09.2018 09:00:00 12,8 4,2 11,7 18 10 26 14 NW 1036,2 - 35 0,0
25.09.2018 08:00:00 12,3 5,8 10,3 18 10 28 15 NW 1035,8 - 0 0,0
25.09.2018 07:00:00 12,0 4,9 9,0 20 11 29 16 NW 1035,5 - 0 0,0
25.09.2018 06:00:00 11,6 5,8 8,9 17 9 39 21 NW 1035,1 - 0 0,0
25.09.2018 05:00:00 11,8 4,7 9,2 19 10 33 18 NW 1035,0 - 0 0,0
25.09.2018 04:00:00 11,5 5,7 8,4 20 11 51 28 NW 1034,7 - 0 0,3
25.09.2018 03:00:00 11,3 5,9 10,2 29 15 48 26 NW 1034,8 - 0 0,0
25.09.2018 02:00:00 12,0 4,7 10,2 27 15 42 23 NNW 1034,3 - 0 0,0
25.09.2018 01:00:00 11,8 4,0 9,5 27 15 44 24 NNW 1034,1 - 0 0,0
25.09.2018 00:00:00 11,4 2,5 9,5 41 22 53 29 NNW 1033,8 - 0 0,0
24.09.2018 23:00:00 11,9 3,1 10,1 35 19 62 34 NW 1033,2 - 0 0,0
24.09.2018 22:00:00 11,7 3,4 9,7 39 21 69 37 NW 1032,7 - 0 0,0
24.09.2018 21:00:00 11,9 2,3 10,1 39 21 67 36 NNW 1032,1 - 0 0,0
24.09.2018 20:00:00 11,9 2,5 9,9 37 20 70 38 NW 1031,6 - 0 0,0
24.09.2018 19:00:00 11,1 2,9 8,5 52 28 70 38 NNW 1030,9 - 24 0,0
24.09.2018 18:00:00 11,7 4,1 9,7 46 25 82 45 NNW 1030,6 - 25 0,6
24.09.2018 17:00:00 12,1 3,3 11,2 55 30 79 42 NW 1030,2 - 26 0,3
24.09.2018 16:00:00 10,8 4,2 9,4 54 29 82 44 WNW 1030,0 - 39 0,0
24.09.2018 15:00:00 12,4 4,6 11,9 40 22 88 48 NW 1029,1 - 23 0,1
24.09.2018 14:00:00 12,5 4,5 13,0 44 24 62 33 NW 1028,5 - 46 0,0
24.09.2018 13:00:00 12,3 5,9 13,0 43 23 76 41 NW 1027,9 - 26 0,7
24.09.2018 12:00:00 11,3 4,2 10,0 45 24 66 36 NW 1027,5 - 9 0,2
24.09.2018 11:00:00 12,6 5,4 13,2 40 21 66 35 NW 1026,7 - 23 0,0
24.09.2018 10:00:00 12,2 5,9 9,7 42 23 67 36 NW 1025,7 - 30 0,1
24.09.2018 09:00:00 12,2 3,3 10,9 46 25 69 37 NW 1024,7 - 8 0,0
24.09.2018 08:00:00 11,9 4,4 10,0 46 25 84 45 NW 1024,2 - 0 0,0
24.09.2018 07:00:00 12,0 5,3 10,2 46 25 75 40 NW 1023,3 - 0 0,1
24.09.2018 06:00:00 11,9 4,4 10,0 48 26 81 44 NW 1022,5 - 0 0,0
24.09.2018 05:00:00 11,5 3,9 7,9 48 26 82 45 NW 1021,9 - 0 1,0
24.09.2018 04:00:00 11,4 3,1 9,5 55 30 76 41 NW 1021,5 - 0 0,0
24.09.2018 03:00:00 12,0 4,8 9,0 43 23 85 46 NW 1020,2 - 0 0,5
24.09.2018 02:00:00 11,9 5,0 9,4 42 23 73 40 NNW 1019,2 - 0 0,0
24.09.2018 01:00:00 11,7 4,8 8,2 46 25 84 46 NW 1018,5 - 0 0,8
24.09.2018 00:00:00 11,1 5,5 8,3 48 26 68 37 NW 1017,4 - 0 0,1
23.09.2018 23:00:00 12,0 5,5 10,2 47 25 72 39 NNW 1016,5 - 0 0,0
23.09.2018 22:00:00 12,2 6,5 10,0 38 21 63 34 NW 1015,2 - 0 0,2
23.09.2018 21:00:00 12,4 6,0 11,0 41 22 64 35 NW 1014,1 - 0 0,0
23.09.2018 20:00:00 12,4 6,3 11,2 44 24 63 34 NNW 1013,1 - 0 0,0
23.09.2018 19:00:00 12,8 5,1 11,7 37 20 66 36 NW 1011,9 - 1 0,0
23.09.2018 18:00:00 13,1 5,2 12,4 43 23 56 30 NNW 1011,3 - 0 0,0
23.09.2018 17:00:00 13,2 5,2 12,3 35 19 51 28 NNW 1011,3 - 0 0,0
23.09.2018 16:00:00 13,3 5,7 12,7 36 20 49 27 NNW 1010,8 - 0 0,0
23.09.2018 15:00:00 12,4 6,3 11,0 46 25 53 28 NNW 1011,2 - 0 0,0
23.09.2018 14:00:00 12,5 8,1 11,7 9 5 16 9 WZW 1011,5 - 0 1,2
23.09.2018 13:00:00 11,4 7,6 10,2 17 9 35 19 NW 1011,9 - 0 0,8
23.09.2018 12:00:00 12,2 7,1 11,4 24 13 32 17 NNW 1012,1 - 0 0,0
23.09.2018 11:00:00 13,4 7,1 13,6 19 10 29 15 NW 1012,2 - 0 0,0
23.09.2018 10:00:00 13,7 6,0 13,6 19 10 29 16 NW 1012,2 - 1 0,0
23.09.2018 09:00:00 13,2 6,3 12,3 22 12 31 17 NW 1012,3 - 0 0,0
23.09.2018 08:00:00 13,5 5,1 11,4 21 12 32 17 WNW 1012,3 - 0 0,0
23.09.2018 07:00:00 13,7 4,4 11,8 23 12 29 16 WNW 1012,3 - 0 0,0
23.09.2018 06:00:00 13,6 4,3 11,2 18 10 34 18 W 1012,4 - 0 0,0
23.09.2018 05:00:00 13,7 4,9 11,8 26 14 35 19 W 1013,0 - 0 0,0
23.09.2018 04:00:00 13,7 5,8 12,0 27 15 39 21 W 1013,5 - 0 0,0
23.09.2018 03:00:00 13,9 5,0 12,2 31 17 39 21 W 1013,8 - 0 0,0
23.09.2018 02:00:00 13,9 5,3 12,0 33 18 41 22 WNW 1013,9 - 0 0,0
23.09.2018 01:00:00 14,1 4,5 12,2 34 18 49 26 WNW 1014,0 - 0 0,0
23.09.2018 00:00:00 13,6 8,2 12,7 39 21 57 31 W 1014,2 - 0 0,0
22.09.2018 23:00:00 14,2 6,4 13,0 36 20 64 34 W 1014,2 - 0 0,0
22.09.2018 22:00:00 14,1 6,6 13,1 41 22 51 28 W 1014,3 - 0 0,0
22.09.2018 21:00:00 14,2 6,2 13,0 41 22 55 30 W 1014,0 - 0 0,0
22.09.2018 20:00:00 14,2 5,9 13,2 39 21 54 29 W 1013,7 - 0 0,0
22.09.2018 19:00:00 14,3 6,1 13,1 43 23 58 31 W 1013,6 - 0 0,0
22.09.2018 18:00:00 14,5 7,0 14,0 44 24 63 34 W 1013,9 - 1 0,0
22.09.2018 17:00:00 14,6 6,5 14,1 47 25 66 36 W 1014,1 - 0 0,0
22.09.2018 16:00:00 14,7 5,8 14,2 48 26 63 34 W 1014,0 - 0 0,0
22.09.2018 15:00:00 14,8 5,9 14,9 53 28 68 37 W 1014,2 - 0 0,0
22.09.2018 14:00:00 14,8 7,5 14,9 52 28 64 35 W 1013,9 - 16 0,0
22.09.2018 13:00:00 14,0 8,7 13,7 49 26 77 42 W 1013,8 - 6 0,0
22.09.2018 12:00:00 14,7 7,0 14,7 48 26 68 37 W 1013,5 14 26 0,0
22.09.2018 11:00:00 14,4 8,7 12,8 44 24 84 45 W 1013,1 14 25 0,6
22.09.2018 10:00:00 14,4 8,4 13,8 51 27 71 38 WZW 1012,6 13 39 0,0
22.09.2018 09:00:00 14,7 7,4 12,4 43 23 61 33 W 1012,4 17 19 0,3
22.09.2018 08:00:00 14,6 8,0 13,2 50 27 62 33 W 1012,3 20 0 0,0
22.09.2018 07:00:00 13,8 8,7 11,7 35 19 67 36 W 1011,8 22 0 0,1
22.09.2018 06:00:00 13,3 8,0 10,7 40 22 65 35 W 1011,6 17 0 0,4
22.09.2018 05:00:00 14,5 7,0 12,7 45 25 59 32 WNW 1011,0 20 0 0,0
22.09.2018 04:00:00 14,2 8,0 12,6 43 23 56 31 WNW 1010,3 17 0 0,0
22.09.2018 03:00:00 13,4 9,0 11,3 44 24 69 37 WNW 1009,5 12 0 0,1
22.09.2018 02:00:00 14,4 7,5 11,6 35 19 50 27 WNW 1008,5 18 0 0,1
22.09.2018 01:00:00 14,0 7,8 12,0 38 20 60 32 W 1007,7 13 0 0,0
22.09.2018 00:00:00 14,9 7,0 13,7 38 21 63 34 W 1006,7 12 0 0,0
21.09.2018 23:00:00 14,7 7,6 13,0 47 25 65 35 W 1006,2 9 0 0,0
21.09.2018 22:00:00 14,0 8,9 11,3 47 26 84 45 W 1005,5 10 0 0,5
21.09.2018 21:00:00 12,2 6,7 9,4 53 29 84 45 W 1005,0 7 0 1,9
21.09.2018 20:00:00 13,8 8,1 12,5 48 26 75 41 W 1004,1 7 0 0,3
21.09.2018 19:00:00 11,3 7,0 9,1 57 31 90 48 W 1004,4 3,0 0 1,1
21.09.2018 18:00:00 14,6 7,8 11,9 59 32 100 54 WZW 1003,4 16 10 0,4
21.09.2018 17:00:00 13,7 8,3 12,8 54 29 90 49 W 1002,9 10 15 0,3
21.09.2018 16:00:00 14,5 9,1 13,6 64 35 107 58 W 1002,2 9 20 3,2
21.09.2018 15:00:00 15,3 10,0 14,1 59 32 87 47 WZW 1001,3 10 29 0,0
21.09.2018 14:00:00 15,0 9,1 14,3 56 31 85 46 WZW 1000,7 9 31 0,3
21.09.2018 13:00:00 15,4 9,5 16,0 64 34 80 43 WZW 999,5 10 33 0,0
21.09.2018 12:00:00 15,9 10,2 16,5 63 34 82 45 WZW 998,6 11 8 0,1
21.09.2018 11:00:00 16,4 13,2 15,9 55 30 97 53 WZW 997,3 10 0 0,0
21.09.2018 10:00:00 18,9 14,4 16,7 63 34 99 54 ZZW 995,3 16 0 0,3
21.09.2018 09:00:00 19,0 14,3 16,8 52 28 63 34 Z 995,6 14 0 0,0
21.09.2018 08:00:00 19,0 14,2 18,1 43 23 54 29 Z 996,6 27 0 0,0
21.09.2018 07:00:00 18,7 14,1 17,8 44 24 55 30 Z 997,9 29 0 0,0
21.09.2018 06:00:00 18,4 14,1 17,5 42 23 50 27 Z 999,4 26 0 0,0
21.09.2018 05:00:00 18,6 14,3 17,7 42 23 51 27 Z 1000,9 27 0 0,0
21.09.2018 04:00:00 18,8 14,3 17,9 41 22 49 26 Z 1002,1 34 0 0,0
21.09.2018 03:00:00 18,9 14,3 17,8 40 22 50 27 Z 1003,4 27 0 0,0
21.09.2018 02:00:00 19,1 14,5 17,8 41 22 50 27 Z 1004,4 28 0 0,0
21.09.2018 01:00:00 19,1 14,8 17,6 36 19 46 25 Z 1005,6 27 0 0,0
21.09.2018 00:00:00 18,9 14,9 17,5 32 17 40 22 Z 1006,9 23 0 0,0
20.09.2018 23:00:00 18,9 15,4 17,8 29 16 36 20 ZZO 1008,0 25 0 0,0
20.09.2018 22:00:00 18,6 15,6 17,4 22 12 28 15 Z 1009,1 26 0 0,0
20.09.2018 21:00:00 18,5 15,7 17,1 19 10 28 15 Z 1010,0 15 0 0,0
20.09.2018 20:00:00 18,7 15,7 17,8 25 13 38 20 ZW 1010,6 18 0 0,0
20.09.2018 19:00:00 19,1 15,2 18,5 31 17 37 20 ZW 1011,0 18 0 0,0
20.09.2018 18:00:00 18,8 15,9 18,5 25 13 40 22 ZW 1011,6 17 10 0,0
20.09.2018 17:00:00 18,6 15,8 18,5 32 18 44 24 WZW 1012,1 18 13 0,0
20.09.2018 16:00:00 19,4 15,5 19,8 35 19 46 25 ZW 1012,3 20 11 0,0
20.09.2018 15:00:00 19,5 16,0 20,6 31 17 42 23 ZZW 1012,2 24 1 0,0
20.09.2018 14:00:00 19,0 15,2 19,1 37 20 50 27 ZW 1012,7 24 0 0,0
20.09.2018 13:00:00 18,8 15,5 19,0 32 18 48 26 ZZW 1012,9 22 1 0,0
20.09.2018 12:00:00 17,9 15,6 17,5 23 12 40 22 ZZW 1013,3 19 0 0,0
20.09.2018 11:00:00 15,8 14,3 15,5 13 7 22 12 WZW 1013,8 16 0 0,0
20.09.2018 10:00:00 15,4 14,5 15,1 19 10 28 15 W 1013,8 16 0 0,1
20.09.2018 09:00:00 15,6 14,9 15,4 26 14 45 24 W 1013,5 3,9 0 0,3

tt = temperatuur
td = dauwpunt
tt 5cm = temperatuur 5cm
ff = windsnelheid
fx = windstoten
dd = windrichting
ppp = luchtdruk
vv = zicht
sd = Zonneschijnduur
rr = neerslag

Weerstations in de omgeving